Location: Orange
(33.2833°S, 149.1000°E)
Time: 21:02:00
(UTC+10:00)

Envisat - Visible Passes

Search period start: 29 September 2022 00:00
Search period end: 09 October 2022 01:00
Orbit: 764 x 765 km, 98.2° (Epoch: 28 September)

Date Brightness Start Highest point End Pass type
(mag) Time Alt. Az. Time Alt. Az. Time Alt. Az.
29 Sep 3.1 03:32:25 27° NNE 03:35:13 73° ESE 03:40:20 10° S visible
30 Sep 4.7 02:54:29 12° NE 02:58:27 30° ESE 03:02:54 10° S visible
30 Sep 3.9 04:34:38 16° NW 04:37:22 25° W 04:41:34 10° SW visible
01 Oct 5.9 02:19:31 10° E 02:21:53 13° ESE 02:24:16 10° SE visible
01 Oct 2.9 03:56:41 19° N 04:00:17 61° W 04:05:23 10° SSW visible
02 Oct 3.6 04:18:41 11° NNE 04:23:23 55° ESE 04:28:25 10° S visible
02 Oct 4.6 06:00:13 10° WNW 06:02:40 13° W 06:05:09 10° WSW visible
03 Oct 5.1 03:42:42 10° ENE 03:46:42 24° ESE 03:50:43 10° SSE visible
03 Oct 3.6 05:20:55 10° NNW 05:25:27 33° W 05:30:04 10° SSW visible
04 Oct 2.8 04:43:20 10° N 04:48:26 81° WNW 04:53:35 10° SSW visible
05 Oct 4.1 04:06:49 10° NE 04:11:36 42° ESE 04:16:25 10° S visible
05 Oct 4.3 05:47:17 10° NW 05:50:43 18° W 05:54:10 10° SW visible
06 Oct 5.5 03:31:32 10° ENE 03:34:57 18° ESE 03:38:24 10° SSE visible
06 Oct 3.3 05:08:44 10° N 05:13:33 43° W 05:18:27 10° SSW visible
07 Oct 3.1 04:31:31 10° NNE 04:36:35 77° ESE 04:41:44 10° S visible
08 Oct 4.6 03:55:20 10° NE 03:59:49 32° ESE 04:04:21 10° S visible
08 Oct 4.0 05:34:44 10° NNW 05:38:46 24° W 05:42:52 10° SW visible
